Seward, AK

2:36 PM AKST on February 25, 2017 (GMT -0900)
Seward

Weather History for PAWD - February, 2014

Change the Weather History Date:

Sunday, February 2, 2014

  Actual Average Record
Temperature  
Mean Temperature 28 °F -  
Max Temperature 33 °F 30 °F 51 °F (1957)
Min Temperature 21 °F 20 °F -7 °F (1999)
Degree Days  
Heating Degree Days 36    
Moisture  
Dew Point 20 °F    
Average Humidity 77    
Maximum Humidity 88    
Minimum Humidity 61    
Precipitation  
Precipitation 0.00 in - - ()
Sea Level Pressure  
Sea Level Pressure 30.38 in    
Wind  
Wind Speed 6 mph (NNW)    
Max Wind Speed 9 mph    
Max Gust Speed -    
Visibility 10 miles    
Events      
Averages and records for this station are not official NWS values.
T = Trace of Precipitation, MM = Missing Value Source: NWS Daily Summary

Daily Weather History Graph

Daily Weather History Graph

Search for Another Location

Airport or City:

Trip Planner

Search our weather history database for the weather conditions in past years. The results will help you decide how hot, cold, wet, or windy it might be!

Date:

Astronomy

Feb. 02, 2014 Rise Set
Actual Time 9:09 AM AKST 5:14 PM AKST
Civil Twilight 8:21 AM AKST 6:01 PM AKST
Nautical Twilight 7:31 AM AKST 6:52 PM AKST
Astronomical Twilight 6:42 AM AKST 7:41 PM AKST
Moon 9:36 AM AKST (2/2) 10:24 PM AKST (2/2)
Length of Visible Light 9h 39m
Length of Day
8h 05m
Waxing Crescent, 12% of the Moon is Illuminated
Feb 2
Waxing Crescent
Feb 6
First Quarter
Feb 14
Full
Feb 22
Last Quarter
Feb 28
New

Hourly Weather History & Observations

Time (AKST) Temp. Windchill Dew Point Humidity Pressure Visibility Wind Dir Wind Speed Gust Speed Precip Events Conditions
12:53 AM 30.0 °F 21.7 °F 19.9 °F 66% 30.38 in 10.0 mi North 9.2 mph - N/A   Clear
1:53 AM 28.9 °F 21.9 °F 21.9 °F 75% 30.38 in 10.0 mi North 6.9 mph - N/A   Clear
2:53 AM 28.0 °F 20.8 °F 21.0 °F 75% 30.38 in 10.0 mi North 6.9 mph - N/A   Clear
3:53 AM 27.0 °F 18.7 °F 21.0 °F 78% 30.38 in 10.0 mi North 8.1 mph - N/A   Clear
4:53 AM 27.0 °F 19.5 °F 19.9 °F 75% 30.37 in 10.0 mi North 6.9 mph - N/A   Clear
5:53 AM 25.0 °F 17.1 °F 19.0 °F 78% 30.37 in 10.0 mi NNW 6.9 mph - N/A   Clear
6:53 AM 25.0 °F 17.1 °F 19.9 °F 81% 30.37 in 10.0 mi NNW 6.9 mph - N/A   Clear
7:53 AM 24.1 °F 17.0 °F 19.0 °F 81% 30.38 in 10.0 mi NNW 5.8 mph - N/A   Clear
8:53 AM 24.1 °F 16.0 °F 19.0 °F 81% 30.38 in 10.0 mi NNW 6.9 mph - N/A   Clear
9:53 AM 24.1 °F 15.2 °F 19.0 °F 81% 30.38 in 10.0 mi NNW 8.1 mph - N/A   Clear
10:53 AM 26.1 °F 16.8 °F 19.0 °F 75% 30.38 in 10.0 mi NNW 9.2 mph - N/A   Clear
11:53 AM 27.0 °F 21.6 °F 19.0 °F 72% 30.38 in 10.0 mi NNW 4.6 mph - N/A   Clear
12:53 PM 30.0 °F 25.2 °F 19.9 °F 66% 30.38 in 10.0 mi NNW 4.6 mph - N/A   Clear
1:53 PM 32.0 °F - 19.9 °F 61% 30.37 in 10.0 mi Calm Calm - N/A   Clear
2:53 PM 33.1 °F 26.9 °F 21.9 °F 64% 30.37 in 10.0 mi SSW 6.9 mph - N/A   Clear
3:53 PM 30.9 °F - 23.0 °F 72% 30.37 in 10.0 mi Calm Calm - N/A   Clear
4:53 PM 30.0 °F - 21.9 °F 72% 30.38 in 10.0 mi Calm Calm - N/A   Scattered Clouds
5:53 PM 28.0 °F - 21.9 °F 78% 30.38 in 10.0 mi Calm Calm - N/A   Clear
6:53 PM 25.0 °F 20.7 °F 21.0 °F 85% 30.38 in 10.0 mi NNW 3.5 mph - N/A   Clear
7:53 PM 24.1 °F 19.7 °F 21.0 °F 88% 30.40 in 10.0 mi North 3.5 mph - N/A   Clear
8:53 PM 25.0 °F 19.3 °F 21.9 °F 88% 30.40 in 10.0 mi NNW 4.6 mph - N/A   Partly Cloudy
9:53 PM 25.0 °F 19.3 °F 21.9 °F 88% 30.41 in 10.0 mi North 4.6 mph - N/A   Clear
10:53 PM 24.1 °F 17.0 °F 21.0 °F 88% 30.42 in 10.0 mi North 5.8 mph - N/A   Clear
11:53 PM 21.9 °F 15.7 °F 18.0 °F 85% 30.43 in 10.0 mi North 4.6 mph - N/A   Clear